Vorticity
2 3 2 1 -0 4 8 6 6 7 7 7 6 6 5 6 5 8 10 10 8 8 7 6 6 6 6 7 8 8 6 5 6 7 6 5 4 5 5 5 5 5 4
5 4 2 2 -0 5 6 6 6 6 6 8 8 8 7 6 6 7 10 8 8 7 6 5 6 6 8 8 9 9 7 7 6 5 4 4 4 4 5 5 5 5 5
5 4 3 2 3 6 4 5 4 4 5 5 7 10 9 8 7 7 7 8 7 6 6 6 6 5 5 6 6 5 6 5 4 4 4 4 4 5 5 6 5 5 6
7 6 4 2 4 4 4 6 5 3 5 6 6 7 11 11 8 7 7 7 7 7 6 6 5 5 5 5 5 5 5 5 5 5 5 5 5 5 5 5 6 7 8
7 5 4 4 4 5 3 6 5 4 3 4 6 6 7 11 12 8 7 7 7 6 6 6 5 5 5 6 5 5 6 6 6 6 6 6 9 8 9 9 8 6 5
8 4 6 -12 2 9 4 4 3 3 3 4 6 7 7 8 11 12 9 8 7 8 8 8 8 8 8 8 8 8 8 7 7 6 7 6 6 6 6 6 6 7 7
8 -2 -6 -0 6 8 3 3 3 3 2 3 4 6 7 8 8 11 13 11 9 9 8 7 7 8 7 7 7 7 7 8 7 8 9 8 9 7 7 6 6 7 7
1 0 -7 2 12 4 3 2 2 2 3 3 3 5 6 7 7 7 7 9 10 9 8 7 6 6 5 6 6 6 5 5 5 6 6 7 6 6 7 7 7 6 6
1 4 2 4 8 3 2 4 3 3 4 3 2 3 4 5 8 8 7 6 5 4 4 5 5 5 5 5 5 5 6 6 6 6 5 6 5 5 4 4 4 4 5
1 4 -2 11 4 2 3 2 4 2 2 3 2 1 1 2 3 5 8 8 7 5 5 5 4 5 5 5 5 5 5 5 5 5 5 4 4 4 4 6 6 6 6
6 6 8 1 4 3 5 0 3 4 4 2 2 2 1 2 2 3 4 5 7 7 7 5 5 5 5 5 6 6 6 6 6 6 7 7 6 6 7 7 6 7 8
6 5 5 5 3 3 5 1 6 4 3 2 3 1 2 2 1 2 2 2 4 5 7 7 6 6 5 5 6 6 6 6 6 7 7 6 6 6 8 11 14 13 10
6 6 5 7 6 4 5 6 6 -1 1 2 3 7 2 2 2 2 2 3 4 3 4 6 7 5 5 5 6 6 7 6 5 6 7 7 8 11 10 7 7 8 8
4 2 2 1 6 6 6 7 9 1 2 -1 3 5 5 3 2 3 2 3 5 3 3 4 6 6 6 5 6 6 6 6 6 8 10 11 11 8 8 8 7 7 7
10 8 4 5 3 5 6 7 11 11 4 7 -1 6 7 6 4 1 3 4 3 4 4 4 5 6 6 6 7 6 5 7 8 9 12 10 9 8 8 7 6 5 5
2 4 5 2 5 7 8 8 7 15 10 8 14 5 2 5 6 4 5 2 4 5 4 5 5 6 6 6 7 6 7 9 10 10 10 9 8 7 7 5 5 5 5
10 3 2 6 6 5 5 5 5 5 4 5 2 7 10 6 8 9 6 5 4 5 5 6 6 7 6 7 6 8 10 11 10 10 9 8 8 6 6 5 6 5 5
5 10 11 7 3 5 4 3 0 0 3 2 3 3 4 1 4 5 6 6 4 5 7 6 6 7 5 6 8 10 11 10 9 9 8 8 7 5 5 6 4 4 4
-4 -1 -7 14 4 5 10 6 6 5 1 5 3 0 0 0 3 4 6 6 7 6 8 7 7 6 6 7 9 9 9 10 8 7 7 6 5 6 6 3 4 5 4
5 1 4 0 -3 3 3 6 3 4 5 3 4 9 14 5 4 5 5 8 9 9 9 8 7 7 7 8 8 9 10 10 9 9 7 6 6 5 5 5 5 4 5
17 -3 2 3 3 3 2 1 0 1 4 2 3 19 13 6 3 5 9 11 10 11 9 8 6 8 8 8 8 9 9 10 12 11 10 9 8 7 5 6 5 5 5
20 26 2 -0 8 3 0 3 0 -1 0 1 9 12 9 4 4 6 8 10 12 12 9 7 7 7 8 6 5 4 6 8 8 9 10 9 10 9 10 8 8 7 7
10 17 33 -3 -8 8 4 -3 -3 -1 -0 1 8 13 5 3 8 6 10 12 14 13 8 6 7 5 3 4 4 3 6 7 8 8 9 10 9 9 8 7 7 7 8
11 12 12 26 15 1 2 4 6 3 3 6 10 13 4 8 6 7 9 18 9 12 6 6 5 4 3 2 1 1 2 2 5 8 8 10 9 7 7 7 8 9 11
14 5 13 10 24 15 10 11 8 6 3 5 9 5 10 7 5 14 17 10 6 11 5 5 3 2 2 1 1 3 2 3 2 6 9 8 7 7 7 8 9 10 9
7 25 7 9 8 9 2 16 13 5 3 13 12 8 5 3 5 19 44 -5 5 10 4 4 2 2 1 1 2 2 3 4 4 5 9 9 8 7 7 10 10 10 7
Height
3153 3154 3155 3155 3155 3154 3154 3153 3152 3151 3150 3150 3148 3148 3148 3147 3146 3146 3146 3147 3146 3147 3148 3148 3149 3151 3151 3152 3152 3154 3154 3156 3157 3158 3159 3159 3160 3159 3160 3160 3160 3159 3159
3152 3153 3154 3154 3155 3154 3154 3153 3152 3151 3151 3150 3149 3148 3147 3147 3146 3146 3146 3146 3147 3147 3149 3149 3149 3151 3152 3152 3153 3154 3155 3155 3156 3156 3157 3157 3158 3158 3158 3158 3158 3158 3158
3151 3152 3153 3153 3154 3154 3154 3153 3152 3152 3151 3150 3149 3148 3147 3147 3147 3146 3147 3147 3148 3148 3149 3150 3150 3151 3151 3152 3153 3153 3154 3155 3155 3155 3155 3156 3157 3156 3156 3156 3155 3155 3155
3149 3151 3152 3152 3153 3153 3153 3152 3152 3151 3151 3150 3150 3148 3147 3147 3147 3147 3147 3147 3148 3149 3150 3150 3150 3151 3152 3152 3152 3153 3153 3154 3154 3154 3154 3154 3155 3154 3154 3153 3153 3153 3152
3148 3149 3150 3152 3152 3153 3153 3152 3152 3151 3151 3151 3150 3149 3148 3147 3146 3147 3147 3148 3148 3148 3149 3149 3150 3150 3151 3152 3152 3152 3152 3152 3152 3152 3153 3152 3153 3153 3152 3152 3151 3150 3151
3145 3148 3149 3150 3151 3152 3152 3152 3152 3151 3150 3150 3150 3149 3149 3148 3147 3147 3148 3148 3148 3149 3149 3149 3150 3150 3151 3151 3151 3151 3151 3150 3150 3150 3150 3150 3150 3150 3150 3149 3149 3149 3149
3144 3146 3147 3149 3151 3151 3152 3152 3152 3152 3151 3151 3150 3150 3149 3149 3148 3148 3148 3148 3149 3149 3149 3149 3150 3150 3150 3151 3150 3150 3150 3150 3149 3148 3148 3148 3149 3148 3148 3147 3147 3148 3148
3143 3145 3146 3148 3150 3151 3151 3151 3152 3152 3152 3151 3151 3150 3150 3150 3149 3149 3149 3149 3149 3149 3149 3150 3150 3150 3150 3150 3150 3150 3149 3149 3148 3148 3147 3147 3147 3146 3146 3146 3146 3145 3145
3139 3144 3144 3146 3148 3149 3150 3150 3150 3151 3151 3151 3151 3151 3150 3150 3150 3150 3150 3149 3149 3149 3149 3149 3149 3149 3148 3148 3148 3148 3148 3148 3147 3145 3145 3145 3145 3145 3144 3144 3144 3143 3142
3137 3138 3142 3144 3146 3147 3148 3149 3150 3150 3150 3150 3150 3150 3150 3150 3150 3150 3150 3150 3149 3149 3149 3148 3148 3148 3148 3147 3147 3146 3146 3146 3145 3144 3144 3143 3142 3142 3141 3141 3140 3139 3139
3135 3135 3138 3141 3142 3144 3145 3147 3148 3148 3148 3149 3149 3149 3149 3149 3149 3149 3149 3149 3149 3149 3148 3148 3148 3147 3147 3146 3145 3145 3143 3143 3142 3141 3142 3141 3139 3138 3139 3138 3136 3136 3135
3133 3133 3133 3136 3139 3140 3142 3143 3144 3145 3146 3147 3148 3148 3148 3148 3148 3148 3149 3148 3148 3148 3147 3147 3146 3146 3145 3145 3144 3142 3140 3139 3137 3138 3139 3137 3136 3134 3135 3133 3133 3132 3131
3130 3130 3131 3130 3134 3136 3137 3139 3141 3142 3143 3143 3146 3146 3146 3146 3146 3146 3147 3147 3148 3147 3146 3145 3145 3144 3143 3141 3140 3139 3138 3136 3134 3135 3135 3133 3132 3130 3130 3129 3129 3128 3128
3125 3127 3128 3128 3128 3131 3133 3135 3136 3138 3139 3140 3142 3144 3143 3144 3144 3145 3144 3145 3146 3145 3144 3143 3143 3141 3141 3139 3138 3135 3134 3133 3131 3132 3131 3129 3128 3127 3126 3126 3126 3125 3124
3120 3121 3123 3124 3126 3125 3128 3131 3132 3133 3135 3136 3138 3139 3140 3141 3141 3141 3142 3142 3142 3142 3141 3141 3139 3138 3138 3136 3135 3132 3130 3129 3128 3127 3127 3125 3125 3124 3123 3122 3122 3121 3120
3117 3116 3117 3121 3122 3122 3124 3126 3128 3129 3130 3132 3134 3135 3136 3136 3138 3138 3140 3139 3139 3139 3138 3137 3136 3135 3135 3133 3131 3129 3127 3126 3124 3122 3123 3122 3121 3120 3119 3118 3117 3116 3116
3111 3112 3112 3115 3117 3119 3119 3121 3124 3126 3126 3127 3130 3130 3132 3132 3134 3135 3135 3135 3136 3135 3134 3134 3133 3132 3130 3129 3127 3126 3124 3122 3121 3119 3118 3119 3117 3116 3115 3113 3112 3112 3111
3105 3107 3107 3108 3111 3113 3117 3117 3119 3121 3122 3123 3126 3127 3127 3128 3131 3130 3131 3131 3132 3131 3130 3129 3128 3128 3126 3125 3124 3122 3120 3119 3117 3116 3115 3114 3113 3112 3110 3109 3108 3107 3106
3098 3101 3102 3101 3102 3108 3112 3112 3113 3115 3116 3118 3120 3122 3122 3124 3125 3125 3126 3126 3127 3126 3125 3125 3124 3123 3122 3121 3120 3118 3116 3115 3114 3112 3111 3109 3108 3106 3105 3104 3103 3102 3099
3090 3093 3096 3097 3096 3100 3104 3107 3107 3109 3111 3113 3113 3115 3118 3118 3119 3120 3120 3121 3121 3121 3120 3120 3119 3119 3118 3117 3115 3114 3112 3111 3109 3108 3105 3104 3104 3101 3099 3098 3096 3094 3092
3078 3084 3087 3088 3090 3094 3093 3099 3100 3103 3105 3107 3108 3110 3111 3112 3113 3113 3114 3115 3115 3115 3115 3115 3115 3114 3114 3112 3111 3109 3108 3106 3105 3103 3100 3099 3096 3095 3094 3092 3089 3087 3084
3069 3073 3078 3080 3079 3084 3090 3089 3092 3097 3098 3101 3103 3104 3105 3106 3107 3108 3108 3109 3109 3109 3110 3110 3110 3110 3109 3108 3107 3106 3104 3103 3101 3098 3095 3092 3090 3088 3086 3083 3082 3078 3075
3057 3062 3067 3071 3073 3073 3079 3080 3082 3090 3091 3094 3097 3099 3100 3101 3102 3103 3103 3103 3104 3104 3105 3105 3105 3106 3105 3104 3103 3102 3098 3096 3095 3092 3089 3087 3084 3081 3078 3076 3073 3069 3065
3047 3051 3057 3061 3064 3065 3064 3069 3077 3083 3085 3089 3091 3093 3095 3095 3096 3097 3097 3097 3098 3099 3100 3101 3100 3100 3100 3099 3099 3096 3093 3091 3088 3087 3084 3080 3077 3074 3070 3068 3065 3061 3057
3040 3041 3045 3050 3054 3056 3055 3060 3070 3074 3078 3083 3084 3086 3088 3089 3090 3091 3091 3093 3094 3095 3096 3096 3096 3096 3095 3094 3092 3090 3088 3085 3081 3078 3077 3075 3071 3066 3061 3057 3053 3049 3044
3030 3032 3034 3039 3043 3046 3045 3052 3061 3066 3071 3075 3077 3078 3080 3082 3084 3084 3086 3086 3089 3090 3091 3091 3091 3091 3090 3088 3086 3084 3081 3078 3073 3068 3064 3063 3058 3058 3052 3048 3043 3038 3034